Погода в Семиярке

Погода в Семиярке : погода сейчас, прогноз погоды и архив. Всё, что Вы хотите узнать о погоде в Семиярке!

Хотите узнать прогноз погоды в Семиярке? Тогда Вам сюда: Погода в Семиярке

Поиск расширенной информации на нашем сайте:

Другие новости

Новости СМИ2

Главная страница сайта

Новости сайта

03.07.2017

Напоминаем, что на нашем специализированном сайте Метеоцентр.Азия вы можете получить высокодетализированные автоматические прогнозы погоды по пунктам России, СНГ и мира в авиационном формате (включающие направление и скорость ветра, видимость, явления погоды, количество и форму облачности, нижнюю и верхнюю границу облачности).


Погода в Семиярке - сегодня

Время (UTC), дата Ветер
(°,м/с) 
Видим.   Явления Облачность Т
(°С)
Тd
(°С)
f(%) Тe
(°С)
Pmin
(гПа)
dP
(гПа)
Po
(мм)
O2
(г/м3)
Тmin Tmax R s Состояние
почвы
15 16.10.17 360 (С) н/о    ясно 
+5 +1.2 76 +5  1020  1.4  751  297    +17.5       
18 16.10.17 тихо ()   н/о    ясно 
+4.8 +0.4 73 +5  1020.6  0.5  752  298    +17.5       
21 16.10.17 тихо ()   н/о    ясно 
+0.8 -0.9 88 +1  1020.8  752  302           
00 17.10.17 тихо ()   н/о    1/0 верхняя 
[Ci sp]
+0.7 -1.3 86 +1  1020.6  -0.3  752  302           
03 17.10.17 тихо ()   20000 м    9/0 средняя, верхняя 
[Ac lent|Ci sp]
+2.2 +0.9 91 +2  1021  0.5  752  300           
06 17.10.17 тихо ()   20000 м    4/0 верхняя 
[Ci fib]
+10.9 +1.6 53 +11  1019.7  -0.7  751  291  -0.9         
09 17.10.17 070 (В) 20000 м    3/0 верхняя 
[Ci fib]
+16.9 -0.1 32 +18  1017.6  -1.7  750  285           
12 17.10.17 050 (СВ) 20000 м    4/0 средняя, верхняя 
[Ac lent|Ci fib]
+12.3 +0.6 45 +13  1017.5  -0.3  750  289           
15 17.10.17 050 (СВ) н/о    ясно 
+6.6 +0.5 65 +6  1017.2  -0.7  749  295    +18       
18 17.10.17 050 (СВ) н/о    ясно 
+2.9 -2.9 66 +2  1016.2  -1.2  748  299    +18       
21 17.10.17 тихо ()   н/о    ясно 
+1.6 -0.1 88 +2  1014.9  -1.4  747  299           
00 18.10.17 тихо ()   н/о    ясно 
+0 -0.6 96 1013.5  -1.5  746  301           
03 18.10.17 070 (В) 20000 м    8/3 600 м средняя 
[Sc|Ac trans]
+3.9 +1.1 82 +3  1012.3  -0.9  746  296           
06 18.10.17 050 (СВ) 20000 м    9/0 средняя, верхняя 
[Ac As|Ci sp]
+11.7 +1 48 +12  1010.8  -1  745  288  +0         
09 18.10.17 050 (СВ) 20000 м    8/0 средняя, верхняя 
[Ac As|Ci sp]
+16.9 +0.8 34 +17  1007.8  -2.6  743  282           
12 18.10.17 050 (СВ) 20000 м    9/9 600 м кучево-дожд. 
[Cb calv]
+13.3 +3.8 53 +13  1008.8  0.8  743  285           
15 18.10.17 270 (З) н/о  слаб. ливневой дождь  9/9 600 м кучево-дожд. 
[Cb calv]
+10.2 +8.2 87 +8  1012.9  3.8  746  288    +18.5  0.0     
18 18.10.17 270 (З) н/о  слаб. ливневой дождь  10/10 600 м кучево-дожд. 
[Cb calv]
+7.7 +6.8 94 +6  1015.4  2.3  748  292    +18.5  0.0     
21 18.10.17 270 (З) н/о  {ливн. осадки}  10/10 600 м кучево-дожд. 
[Cb calv]
+7.5 +5.5 87 +7  1016.3  0.9  749  293           
00 19.10.17 230 (ЮЗ) н/о  {ливн. осадки}  9/9 600 м кучево-дожд. 
[Cb calv]
+5.5 +3.4 86 +4  1017.5  749  295           
03 19.10.17 200 (Ю) 20000 м    8/3 600 м кучево-дожд., средняя, верхняя 
[Cb calv|Ac lent|Ci sp]
+6.5 +3.9 83 +4  1016.9  -0.5  749  294         
06 19.10.17 230 (ЮЗ) 12  20000 м    9/6 600 м верхняя 
[Cu med, cong|Ci sp]
+12.1 +0.6 45 +10  1014.8  -1.7  748  288  +4.8       
09 19.10.17 230 (ЮЗ) 10  20000 м    9/9 600 м кучево-дожд. 
[Cb calv]
+11.7 +0.3 45 +10  1012  -2.8  746  288           
12 19.10.17 200 (Ю) 10  20000 м  {ливн. осадки}  9/9 600 м кучево-дожд. 
[Cb calv]
+9.7 +1.3 56 +7  1010.5  -1.6  745  289           
15 19.10.17 200 (Ю) 12  н/о  слаб. ливневой дождь  10/10 600 м кучево-дожд. 
[Cb calv]
+7.4 +3.2 75 +4  1009.1  -1.5  743  291    +13.2  0.0     
Время (UTC), дата Ветер
(°,м/с) 
Видим.   Явления Облачность Т
(°С)
Тd
(°С)
f(%) Тe
(°С)
Pmin
(гПа)
dP
(гПа)
Po
(мм)
O2
(г/м3)
Тmin Tmax R s Состояние
почвы

Для получения пояснительной информации подведите курсор к названию столбца.

ПОГОДА в Семиярке - архив

Всё, что Вы хотите узнать о погоде в Семиярке - удобно и подробно!

Выберите нужную дату (начиная с 1 января 2015* года) и нажмите кнопку "Найти".
Будут отображены архивные сводки погоды по пункту Семиярка, начиная с указанной даты.


Отображать данные в формате CSV (для использования в таблицах Excel)


Внимание! Наш архив погоды предназначен исключительно для личного некоммерческого использования в познавательных целях. Если Вам необходимы официальные справки о состоянии погоды (для производственных, юридических, коммерческих и т.п. целей), обращайтесь в органы Росгидромета.

*Примечание: данная дата относится к архиву по метеостанциям СССР (Россия, СНГ, Балтия).
Архив по метеостанциям Зарубежной Европы и Азии (кроме Китая) хранится 10 дней, по другим регионам земного шара (Китай, Африка, Америка, Австралия, Океания) - 1 день.

Семиярка - район местоположения метеостанции


Название, широта, долгота, высота метеостанции:
Семиярка 50.9°ш. 78.3°д. 149 м над ур. моря [Казахстан]

Дополнительная информация

В oтличие oт бoльшинства пoгoдных сайтoв мы публикуем пoдрoбную метеoинфoрмацию в детальнoм прoфессиoнальнoм фoрмате.

Характеристики температуры и влажнoсти вoздуха измеряются на высoте 2 м в тени вдали oт зданий и деревьев.
Скoрoсть ветра измеряется на высoте 10 м (на урoвне рoста челoвека скoрoсть ветра ниже в 1.5-2 раза). Если метеoстанция нахoдится в гoрoде или в лесу, тo скoрoсть ветра занижена на 2-4 м/с пo сравнению с oткрытым местoм. Скoрoсть ветра над акватoриями крупных рек и oзёр, а также на вершинах хoлмoв на 2-5 м/с выше, чем в oбычных услoвиях.
Атмoсфернoе давление в разных тoчках местнoсти мoжет значительнo oтличаться oт давления на метеoстанции, в зависимoсти oт услoвий рельефа (при пoдъёме на 10 м давление пoнижается примернo на 1 мм рт.ст.).